This is the latest recevied weather packets stored in our database for station/object KC1DMA. If no packets are shown the sender has not sent any weather packets the latest 10 day(s).
| Time | Temp. | Humidity | Pressure | Rain* | Wind** | Luminosity | Snow |
|---|---|---|---|---|---|---|---|
| 1777842458 | 11.67° C | 36% | 1010.8 hPa | - | - | 161 W/m² | - |
| 1777841851 | 12.22° C | 36% | 1010.9 hPa | - | - | 414 W/m² | - |
| 1777841548 | 12.22° C | 37% | 1010.8 hPa | - | - | 441 W/m² | - |
| 1777841244 | 12.22° C | 37% | 1011 hPa | - | - | 445 W/m² | - |
| 1777840639 | - | - | - | - | - | - | - |
| 1777840336 | 11.67° C | 40% | 1010.6 hPa | - | - | 473 W/m² | - |
| 1777840034 | 12.78° C | 37% | 1010.8 hPa | - | - | 591 W/m² | - |
| 1777839732 | 11.67° C | 38% | 1010.8 hPa | - | - | 298 W/m² | - |
| 1777838519 | 11.11° C | 38% | 1010.8 hPa | - | - | 240 W/m² | - |
| 1777837913 | 11.67° C | 40% | 1010.8 hPa | - | - | 244 W/m² | - |
| 1777836692 | 11.67° C | 38% | 1010.5 hPa | - | - | 280 W/m² | - |
| 1777836388 | 11.11° C | 38% | 1010.7 hPa | - | - | 721 W/m² | - |
| 1777835473 | 12.22° C | 39% | 1010.5 hPa | - | - | 861 W/m² | - |
| 1777834866 | 10.56° C | 39% | 1010.2 hPa | - | - | 263 W/m² | - |
| 1777833958 | 11.67° C | 38% | 1010.6 hPa | - | - | 288 W/m² | - |
| 1777832747 | 11.11° C | 39% | 1010.6 hPa | - | - | 396 W/m² | - |
| 1777832445 | 10.56° C | 39% | 1010.6 hPa | - | - | 476 W/m² | - |
| 1777832141 | 10.56° C | 40% | 1010.6 hPa | - | - | 385 W/m² | - |
| 1777831838 | 10.56° C | 41% | 1010.5 hPa | - | - | 362 W/m² | - |
| 1777829710 | 10.56° C | 44% | 1010.9 hPa | - | - | 1021 W/m² | - |
| 1777825769 | 10° C | 46% | 1010.5 hPa | - | - | 873 W/m² | - |
| 1777822739 | 9.44° C | 52% | 1010.7 hPa | - | - | 247 W/m² | - |
| 1777821528 | 8.89° C | 49% | 1010.7 hPa | - | - | 303 W/m² | - |
| 1777820923 | 9.44° C | 49% | 1010.6 hPa | - | - | 280 W/m² | - |
| 1777820316 | 10° C | 49% | 1010.8 hPa | - | - | 393 W/m² | - |
* Rain since midnight (hover to see other rain measurements)
** Current wind speed in m/s (hover to see current wind gust speed)